Time,TemperatureF,DewpointF,PressureIn,WindDirection,WindDirectionDegrees,WindSpeedMPH,WindSpeedGustMPH,Humidity,HourlyPrecipIn,Conditions,Clouds,dailyrainin,SolarRadiationWatts/m^2,SoftwareType,DateUTC
2013-02-17 00:05:00,25.2,11.7,30.15,NNW,348,3.0,5.0,56,0.00,,,0.00,0,Wunderground v.1.15,2013-02-17 05:05:00,
2013-02-17 00:10:00,25.1,11.6,30.16,NNW,340,3.0,3.0,56,0.00,,,0.00,0,Wunderground v.1.15,2013-02-17 05:10:00,
2013-02-17 00:15:00,24.9,11.8,30.16,NNW,338,2.0,7.0,57,0.00,,,0.00,0,Wunderground v.1.15,2013-02-17 05:15:00,
2013-02-17 00:20:00,24.9,11.8,30.16,North,355,2.0,3.0,57,0.00,,,0.00,0,Wunderground v.1.15,2013-02-17 05:20:00,
2013-02-17 00:25:00,24.7,11.6,30.16,NNW,342,2.0,3.0,57,0.00,,,0.00,0,Wunderground v.1.15,2013-02-17 05:25:00,
2013-02-17 00:30:00,24.7,11.2,30.16,NNW,342,3.0,3.0,56,0.00,,,0.00,0,Wunderground v.1.15,2013-02-17 05:30:00,
2013-02-17 00:35:00,24.7,11.2,30.16,NNW,331,3.0,4.0,56,0.00,,,0.00,0,Wunderground v.1.15,2013-02-17 05:35:00,
2013-02-17 00:45:00,24.5,11.0,30.17,NW,323,3.0,4.0,56,0.00,,,0.00,0,Wunderground v.1.15,2013-02-17 05:45:00,
2013-02-17 00:50:00,24.6,10.7,30.16,North,360,4.0,4.0,55,0.00,,,0.00,0,Wunderground v.1.15,2013-02-17 05:50:00,
2013-02-17 00:55:00,24.6,10.7,30.16,North,355,4.0,4.0,55,0.00,,,0.00,0,Wunderground v.1.15,2013-02-17 05:55:00,
2013-02-17 01:00:00,24.6,11.1,30.17,NNW,338,4.0,4.0,56,0.00,,,0.00,0,Wunderground v.1.15,2013-02-17 06:00:00,
2013-02-17 01:10:00,24.4,10.9,30.17,NNW,348,2.0,4.0,56,0.00,,,0.00,0,Wunderground v.1.15,2013-02-17 06:10:00,
2013-02-17 01:15:00,24.3,10.4,30.17,NNW,346,2.0,4.0,55,0.00,,,0.00,0,Wunderground v.1.15,2013-02-17 06:15:00,
2013-02-17 01:20:00,24.2,10.7,30.17,NNW,340,2.0,4.0,56,0.00,,,0.00,0,Wunderground v.1.15,2013-02-17 06:20:00,
2013-02-17 01:25:00,24.0,10.6,30.17,North,355,2.0,4.0,56,0.00,,,0.00,0,Wunderground v.1.15,2013-02-17 06:25:00,
2013-02-17 01:30:00,23.9,10.5,30.17,NNW,346,2.0,2.0,56,0.00,,,0.00,0,Wunderground v.1.15,2013-02-17 06:30:00,
2013-02-17 01:35:00,23.9,10.5,30.17,NNW,346,3.0,3.0,56,0.00,,,0.00,0,Wunderground v.1.15,2013-02-17 06:35:00,
2013-02-17 01:40:00,23.9,10.5,30.17,NNW,344,2.0,2.0,56,0.00,,,0.00,0,Wunderground v.1.15,2013-02-17 06:40:00,
2013-02-17 01:50:00,23.7,10.7,30.17,NNW,336,2.0,2.0,57,0.00,,,0.00,0,Wunderground v.1.15,2013-02-17 06:50:00,
2013-02-17 01:55:00,23.6,10.6,30.17,North,355,2.0,2.0,57,0.00,,,0.00,0,Wunderground v.1.15,2013-02-17 06:55:00,
2013-02-17 02:00:00,23.5,10.5,30.17,NNW,344,2.0,4.0,57,0.00,,,0.00,0,Wunderground v.1.15,2013-02-17 07:00:00,
2013-02-17 02:05:00,23.6,10.6,30.18,NNW,333,2.0,4.0,57,0.00,,,0.00,0,Wunderground v.1.15,2013-02-17 07:05:00,
2013-02-17 02:15:00,23.4,10.4,30.18,NNW,341,1.0,3.0,57,0.00,,,0.00,0,Wunderground v.1.15,2013-02-17 07:15:00,
2013-02-17 02:25:00,23.3,9.9,30.18,NNW,335,1.0,2.0,56,0.00,,,0.00,0,Wunderground v.1.15,2013-02-17 07:25:00,
2013-02-17 02:30:00,23.2,10.2,30.18,NNW,335,1.0,1.0,57,0.00,,,0.00,0,Wunderground v.1.15,2013-02-17 07:30:00,
2013-02-17 02:35:00,23.2,9.8,30.18,NNW,339,1.0,1.0,56,0.00,,,0.00,0,Wunderground v.1.15,2013-02-17 07:35:00,
2013-02-17 02:40:00,23.3,9.9,30.18,North,355,1.0,1.0,56,0.00,,,0.00,0,Wunderground v.1.15,2013-02-17 07:40:00,
2013-02-17 02:45:00,23.2,9.8,30.18,North,355,1.0,1.0,56,0.00,,,0.00,0,Wunderground v.1.15,2013-02-17 07:45:00,
2013-02-17 02:50:00,23.1,10.1,30.18,NNW,347,0.0,0.0,57,0.00,,,0.00,0,Wunderground v.1.15,2013-02-17 07:50:00,
2013-02-17 03:00:00,23.0,9.6,30.18,North,11,0.0,0.0,56,0.00,,,0.00,0,Wunderground v.1.15,2013-02-17 08:00:00,
2013-02-17 03:05:00,22.9,9.9,30.18,NNE,17,1.0,2.0,57,0.00,,,0.00,0,Wunderground v.1.15,2013-02-17 08:05:00,
2013-02-17 03:15:00,22.9,9.5,30.18,NNE,28,1.0,2.0,56,0.00,,,0.00,0,Wunderground v.1.15,2013-02-17 08:15:00,
2013-02-17 03:20:00,22.9,9.9,30.18,North,355,1.0,1.0,57,0.00,,,0.00,0,Wunderground v.1.15,2013-02-17 08:20:00,
2013-02-17 03:30:00,22.8,9.8,30.18,North,360,1.0,1.0,57,0.00,,,0.00,0,Wunderground v.1.15,2013-02-17 08:30:00,
2013-02-17 03:35:00,22.7,9.7,30.18,North,360,0.0,1.0,57,0.00,,,0.00,0,Wunderground v.1.15,2013-02-17 08:35:00,
2013-02-17 03:40:00,22.7,9.7,30.18,North,350,0.0,0.0,57,0.00,,,0.00,0,Wunderground v.1.15,2013-02-17 08:40:00,
2013-02-17 03:45:00,22.6,9.6,30.19,North,350,0.0,0.0,57,0.00,,,0.00,0,Wunderground v.1.15,2013-02-17 08:45:00,
2013-02-17 03:50:00,22.5,9.9,30.19,North,350,0.0,0.0,58,0.00,,,0.00,0,Wunderground v.1.15,2013-02-17 08:50:00,
2013-02-17 03:55:00,22.4,9.8,30.19,North,350,0.0,1.0,58,0.00,,,0.00,0,Wunderground v.1.15,2013-02-17 08:55:00,
2013-02-17 04:00:00,22.4,9.8,30.19,North,351,0.0,0.0,58,0.00,,,0.00,0,Wunderground v.1.15,2013-02-17 09:00:00,
2013-02-17 04:10:00,22.4,10.2,30.19,North,351,0.0,0.0,59,0.00,,,0.00,0,Wunderground v.1.15,2013-02-17 09:10:00,
2013-02-17 04:15:00,22.3,10.1,30.19,North,351,0.0,0.0,59,0.00,,,0.00,0,Wunderground v.1.15,2013-02-17 09:15:00,
2013-02-17 04:20:00,22.3,10.1,30.19,NNW,347,1.0,1.0,59,0.00,,,0.00,0,Wunderground v.1.15,2013-02-17 09:20:00,
2013-02-17 04:25:00,22.3,10.1,30.19,NNW,347,0.0,1.0,59,0.00,,,0.00,0,Wunderground v.1.15,2013-02-17 09:25:00,
2013-02-17 04:30:00,22.2,10.0,30.19,NNW,347,0.0,0.0,59,0.00,,,0.00,0,Wunderground v.1.15,2013-02-17 09:30:00,
2013-02-17 04:35:00,22.3,10.5,30.19,North,5,0.0,0.0,60,0.00,,,0.00,0,Wunderground v.1.15,2013-02-17 09:35:00,
2013-02-17 04:45:00,22.4,10.2,30.20,NNW,341,1.0,2.0,59,0.00,,,0.00,0,Wunderground v.1.15,2013-02-17 09:45:00,
2013-02-17 04:50:00,22.3,10.1,30.20,NNW,340,1.0,2.0,59,0.00,,,0.00,0,Wunderground v.1.15,2013-02-17 09:50:00,
2013-02-17 04:55:00,22.3,10.1,30.20,NNW,339,1.0,2.0,59,0.00,,,0.00,0,Wunderground v.1.15,2013-02-17 09:55:00,
2013-02-17 05:00:00,22.4,10.2,30.20,NNW,330,1.0,1.0,59,0.00,,,0.00,0,Wunderground v.1.15,2013-02-17 10:00:00,
2013-02-17 05:05:00,22.5,10.3,30.20,NNW,330,1.0,1.0,59,0.00,,,0.00,0,Wunderground v.1.15,2013-02-17 10:05:00,
2013-02-17 05:15:00,22.2,10.8,30.20,NNW,330,0.0,0.0,61,0.00,,,0.00,0,Wunderground v.1.15,2013-02-17 10:15:00,
2013-02-17 05:20:00,22.0,11.0,30.20,NNW,330,0.0,0.0,62,0.00,,,0.00,0,Wunderground v.1.15,2013-02-17 10:20:00,
2013-02-17 05:25:00,21.7,11.0,30.20,NNW,330,0.0,0.0,63,0.00,,,0.00,0,Wunderground v.1.15,2013-02-17 10:25:00,
2013-02-17 05:35:00,21.2,11.6,30.20,NNW,330,0.0,0.0,66,0.00,,,0.00,0,Wunderground v.1.15,2013-02-17 10:35:00,
2013-02-17 05:40:00,20.9,11.0,30.21,NNW,330,0.0,0.0,65,0.00,,,0.00,0,Wunderground v.1.15,2013-02-17 10:40:00,
2013-02-17 05:45:00,20.5,11.9,30.21,NNW,330,0.0,0.0,69,0.00,,,0.00,0,Wunderground v.1.15,2013-02-17 10:45:00,
2013-02-17 05:50:00,20.1,11.9,30.21,NNW,330,0.0,0.0,70,0.00,,,0.00,0,Wunderground v.1.15,2013-02-17 10:50:00,
2013-02-17 06:00:00,19.4,11.5,30.21,NNW,330,0.0,0.0,71,0.00,,,0.00,0,Wunderground v.1.15,2013-02-17 11:00:00,
2013-02-17 06:05:00,19.0,11.1,30.22,NNW,330,0.0,0.0,71,0.00,,,0.00,0,Wunderground v.1.15,2013-02-17 11:05:00,
2013-02-17 06:15:00,18.7,11.2,30.22,NNW,330,0.0,0.0,72,0.00,,,0.00,0,Wunderground v.1.15,2013-02-17 11:15:00,
2013-02-17 06:20:00,18.6,11.1,30.22,NNW,330,0.0,0.0,72,0.00,,,0.00,0,Wunderground v.1.15,2013-02-17 11:20:00,
2013-02-17 06:25:00,18.4,11.5,30.23,NNW,330,0.0,0.0,74,0.00,,,0.00,0,Wunderground v.1.15,2013-02-17 11:25:00,
2013-02-17 06:35:00,17.9,11.3,30.23,NNW,330,0.0,0.0,75,0.00,,,0.00,0,Wunderground v.1.15,2013-02-17 11:35:00,
2013-02-17 06:40:00,17.7,11.4,30.23,NNW,330,0.0,0.0,76,0.00,,,0.00,0,Wunderground v.1.15,2013-02-17 11:40:00,
2013-02-17 06:45:00,17.6,11.3,30.23,NNW,330,0.0,0.0,76,0.00,,,0.00,0,Wunderground v.1.15,2013-02-17 11:45:00,
2013-02-17 06:50:00,17.4,11.4,30.23,NNW,330,0.0,0.0,77,0.00,,,0.00,0,Wunderground v.1.15,2013-02-17 11:50:00,
2013-02-17 06:55:00,17.2,11.2,30.23,NNW,330,0.0,0.0,77,0.00,,,0.00,0,Wunderground v.1.15,2013-02-17 11:55:00,
2013-02-17 07:00:00,17.1,11.1,30.23,NNW,330,0.0,0.0,77,0.00,,,0.00,0,Wunderground v.1.15,2013-02-17 12:00:00,
2013-02-17 07:10:00,17.2,11.2,30.24,NNW,330,0.0,0.0,77,0.00,,,0.00,0,Wunderground v.1.15,2013-02-17 12:10:00,
2013-02-17 07:15:00,17.4,11.1,30.24,NNW,330,0.0,0.0,76,0.00,,,0.00,0,Wunderground v.1.15,2013-02-17 12:15:00,
2013-02-17 07:20:00,17.8,11.5,30.24,NNW,330,0.0,0.0,76,0.00,,,0.00,0,Wunderground v.1.15,2013-02-17 12:20:00,
2013-02-17 07:25:00,18.1,11.5,30.24,NNW,330,0.0,0.0,75,0.00,,,0.00,0,Wunderground v.1.15,2013-02-17 12:25:00,
2013-02-17 07:30:00,18.3,11.7,30.24,NNW,330,0.0,0.0,75,0.00,,,0.00,5,Wunderground v.1.15,2013-02-17 12:30:00,
2013-02-17 07:35:00,18.4,11.5,30.24,NNW,330,0.0,0.0,74,0.00,,,0.00,9,Wunderground v.1.15,2013-02-17 12:35:00,
2013-02-17 07:45:00,18.4,11.5,30.25,NNW,330,0.0,0.0,74,0.00,,,0.00,16,Wunderground v.1.15,2013-02-17 12:45:00,
2013-02-17 07:50:00,18.4,11.8,30.25,NNW,330,0.0,0.0,75,0.00,,,0.00,19,Wunderground v.1.15,2013-02-17 12:50:00,
2013-02-17 07:55:00,18.6,12.3,30.25,NNW,330,0.0,0.0,76,0.00,,,0.00,47,Wunderground v.1.15,2013-02-17 12:55:00,
2013-02-17 08:00:00,19.1,13.4,30.25,NNW,330,0.0,0.0,78,0.00,,,0.00,51,Wunderground v.1.15,2013-02-17 13:00:00,
2013-02-17 08:05:00,19.7,13.4,30.25,West,280,0.0,0.0,76,0.00,,,0.00,49,Wunderground v.1.15,2013-02-17 13:05:00,
2013-02-17 08:14:00,20.6,13.6,30.25,West,280,0.0,0.0,74,0.00,,,0.00,65,Wunderground v.1.15,2013-02-17 13:14:00,
2013-02-17 08:20:00,21.4,13.1,30.26,West,280,0.0,0.0,70,0.00,,,0.00,74,Wunderground v.1.15,2013-02-17 13:20:00,
2013-02-17 08:25:00,22.0,13.0,30.26,West,280,0.0,0.0,68,0.00,,,0.00,51,Wunderground v.1.15,2013-02-17 13:25:00,
2013-02-17 08:30:00,22.5,12.8,30.26,West,280,0.0,0.0,66,0.00,,,0.00,30,Wunderground v.1.15,2013-02-17 13:30:00,
2013-02-17 08:35:00,23.0,12.6,30.27,West,280,0.0,0.0,64,0.00,,,0.00,121,Wunderground v.1.15,2013-02-17 13:35:00,
2013-02-17 08:40:00,23.5,13.1,30.27,West,280,0.0,0.0,64,0.00,,,0.00,223,Wunderground v.1.15,2013-02-17 13:40:00,
2013-02-17 08:45:00,23.9,12.8,30.27,WNW,286,0.0,0.0,62,0.00,,,0.00,199,Wunderground v.1.15,2013-02-17 13:45:00,
2013-02-17 08:50:00,24.3,13.1,30.27,WNW,286,0.0,0.0,62,0.00,,,0.00,121,Wunderground v.1.15,2013-02-17 13:50:00,
2013-02-17 08:59:00,25.0,13.1,30.27,WNW,286,0.0,0.0,60,0.00,,,0.00,178,Wunderground v.1.15,2013-02-17 13:59:00,
2013-02-17 09:05:00,25.2,12.9,30.28,WNW,286,0.0,0.0,59,0.00,,,0.00,58,Wunderground v.1.15,2013-02-17 14:05:00,
2013-02-17 09:15:00,25.8,13.4,30.28,SSW,202,0.0,0.0,59,0.00,,,0.00,142,Wunderground v.1.15,2013-02-17 14:15:00,
2013-02-17 09:20:00,26.4,13.2,30.28,SSW,201,0.0,0.0,57,0.00,,,0.00,163,Wunderground v.1.15,2013-02-17 14:20:00,
2013-02-17 09:30:00,27.4,13.3,30.29,NNW,348,0.0,4.0,55,0.00,,,0.00,149,Wunderground v.1.15,2013-02-17 14:30:00,
2013-02-17 09:35:00,27.5,11.7,30.29,NNW,327,2.0,4.0,51,0.00,,,0.00,40,Wunderground v.1.15,2013-02-17 14:35:00,
2013-02-17 09:40:00,27.6,12.7,30.29,North,351,3.0,3.0,53,0.00,,,0.00,118,Wunderground v.1.15,2013-02-17 14:40:00,
2013-02-17 09:45:00,28.0,12.2,30.29,NNW,348,2.0,3.0,51,0.00,,,0.00,274,Wunderground v.1.15,2013-02-17 14:45:00,
2013-02-17 09:55:00,28.3,12.5,30.29,NNW,336,3.0,5.0,51,0.00,,,0.00,209,Wunderground v.1.15,2013-02-17 14:55:00,
2013-02-17 10:00:00,28.7,12.4,30.29,NNW,329,2.0,2.0,50,0.00,,,0.00,346,Wunderground v.1.15,2013-02-17 15:00:00,
2013-02-17 10:10:00,29.3,12.9,30.30,North,350,2.0,2.0,50,0.00,,,0.00,390,Wunderground v.1.15,2013-02-17 15:10:00,
2013-02-17 10:15:00,29.6,12.8,30.30,NNW,331,1.0,2.0,49,0.00,,,0.00,441,Wunderground v.1.15,2013-02-17 15:15:00,
2013-02-17 10:20:00,29.7,12.4,30.30,NNW,341,2.0,2.0,48,0.00,,,0.00,515,Wunderground v.1.15,2013-02-17 15:20:00,
2013-02-17 10:30:00,30.0,12.7,30.31,NNW,336,1.0,1.0,48,0.00,,,0.00,557,Wunderground v.1.15,2013-02-17 15:30:00,
2013-02-17 10:35:00,30.3,12.9,30.31,NNW,346,1.0,3.0,48,0.00,,,0.00,557,Wunderground v.1.15,2013-02-17 15:35:00,
2013-02-17 10:40:00,30.6,13.2,30.31,WNW,302,2.0,2.0,48,0.00,,,0.00,552,Wunderground v.1.15,2013-02-17 15:40:00,
2013-02-17 10:45:00,30.9,12.5,30.31,NNW,340,3.0,3.0,46,0.00,,,0.00,345,Wunderground v.1.15,2013-02-17 15:45:00,
2013-02-17 10:55:00,30.7,12.3,30.31,NNW,336,7.0,9.0,46,0.00,,,0.00,185,Wunderground v.1.15,2013-02-17 15:55:00,
2013-02-17 11:00:00,30.5,11.7,30.31,NNE,25,8.0,8.0,45,0.00,,,0.00,466,Wunderground v.1.15,2013-02-17 16:00:00,
2013-02-17 11:05:00,30.7,11.8,30.31,NNW,348,6.0,12.0,45,0.00,,,0.00,313,Wunderground v.1.15,2013-02-17 16:05:00,
2013-02-17 11:15:00,30.7,12.3,30.31,NNW,337,9.0,12.0,46,0.00,,,0.00,274,Wunderground v.1.15,2013-02-17 16:15:00,
2013-02-17 11:20:00,30.6,12.2,30.31,North,5,8.0,8.0,46,0.00,,,0.00,262,Wunderground v.1.15,2013-02-17 16:20:00,
2013-02-17 11:30:00,31.0,12.1,30.31,NNE,14,5.0,10.0,45,0.00,,,0.00,97,Wunderground v.1.15,2013-02-17 16:30:00,
2013-02-17 11:35:00,31.1,12.2,30.31,NNW,330,8.0,10.0,45,0.00,,,0.00,97,Wunderground v.1.15,2013-02-17 16:35:00,
2013-02-17 11:40:00,31.4,13.0,30.31,NNE,31,8.0,8.0,46,0.00,,,0.00,100,Wunderground v.1.15,2013-02-17 16:40:00,
2013-02-17 11:45:00,31.8,12.3,30.31,NNW,341,6.0,14.0,44,0.00,,,0.00,592,Wunderground v.1.15,2013-02-17 16:45:00,
2013-02-17 11:55:00,31.9,12.9,30.31,North,9,7.0,9.0,45,0.00,,,0.00,682,Wunderground v.1.15,2013-02-17 16:55:00,
2013-02-17 12:00:00,32.3,12.8,30.31,North,10,6.0,7.0,44,0.00,,,0.00,652,Wunderground v.1.15,2013-02-17 17:00:00,
2013-02-17 12:05:00,32.3,12.8,30.30,North,355,6.0,7.0,44,0.00,,,0.00,520,Wunderground v.1.15,2013-02-17 17:05:00,
2013-02-17 12:15:00,32.4,12.4,30.30,NNE,22,7.0,7.0,43,0.00,,,0.00,633,Wunderground v.1.15,2013-02-17 17:15:00,
2013-02-17 12:20:00,32.6,13.1,30.30,North,355,7.0,7.0,44,0.00,,,0.00,626,Wunderground v.1.15,2013-02-17 17:20:00,
2013-02-17 12:30:00,33.2,13.6,30.30,NNW,345,4.0,5.0,44,0.00,,,0.00,587,Wunderground v.1.15,2013-02-17 17:30:00,
2013-02-17 12:35:00,33.4,13.3,30.30,North,350,4.0,5.0,43,0.00,,,0.00,594,Wunderground v.1.15,2013-02-17 17:35:00,
2013-02-17 12:40:00,33.7,13.5,30.29,NNW,332,6.0,6.0,43,0.00,,,0.00,403,Wunderground v.1.15,2013-02-17 17:40:00,
2013-02-17 12:45:00,34.0,13.3,30.29,North,5,6.0,6.0,42,0.00,,,0.00,589,Wunderground v.1.15,2013-02-17 17:45:00,
2013-02-17 12:50:00,33.8,13.1,30.29,NNE,19,6.0,6.0,42,0.00,,,0.00,461,Wunderground v.1.15,2013-02-17 17:50:00,
2013-02-17 12:55:00,33.9,13.2,30.29,NNE,16,6.0,6.0,42,0.00,,,0.00,606,Wunderground v.1.15,2013-02-17 17:55:00,
2013-02-17 13:05:00,34.4,13.1,30.29,North,355,5.0,11.0,41,0.00,,,0.00,619,Wunderground v.1.15,2013-02-17 18:05:00,
2013-02-17 13:15:00,34.4,12.5,30.28,NW,321,7.0,7.0,40,0.00,,,0.00,454,Wunderground v.1.15,2013-02-17 18:15:00,
2013-02-17 13:20:00,34.4,12.5,30.28,North,360,7.0,9.0,40,0.00,,,0.00,374,Wunderground v.1.15,2013-02-17 18:20:00,
2013-02-17 13:30:00,35.0,13.6,30.28,NNW,332,5.0,5.0,41,0.00,,,0.00,446,Wunderground v.1.15,2013-02-17 18:30:00,
2013-02-17 13:35:00,35.1,13.7,30.28,NW,326,4.0,5.0,41,0.00,,,0.00,589,Wunderground v.1.15,2013-02-17 18:35:00,
2013-02-17 13:45:00,36.2,14.2,30.27,NNE,12,3.0,4.0,40,0.00,,,0.00,686,Wunderground v.1.15,2013-02-17 18:45:00,
2013-02-17 13:50:00,36.5,14.4,30.27,NNE,14,5.0,5.0,40,0.00,,,0.00,682,Wunderground v.1.15,2013-02-17 18:50:00,
2013-02-17 13:55:00,36.6,13.4,30.27,NNW,342,5.0,5.0,38,0.00,,,0.00,679,Wunderground v.1.15,2013-02-17 18:55:00,
2013-02-17 14:05:00,36.5,14.4,30.27,NW,316,2.0,5.0,40,0.00,,,0.00,663,Wunderground v.1.15,2013-02-17 19:05:00,
2013-02-17 14:15:00,37.7,14.3,30.26,North,5,1.0,3.0,38,0.00,,,0.00,649,Wunderground v.1.15,2013-02-17 19:15:00,
2013-02-17 14:25:00,37.4,14.7,30.26,NW,309,4.0,4.0,39,0.00,,,0.00,636,Wunderground v.1.15,2013-02-17 19:25:00,
2013-02-17 14:30:00,37.4,14.1,30.26,NNW,343,3.0,6.0,38,0.00,,,0.00,624,Wunderground v.1.15,2013-02-17 19:30:00,
2013-02-17 14:35:00,37.2,13.9,30.26,NNE,13,3.0,6.0,38,0.00,,,0.00,615,Wunderground v.1.15,2013-02-17 19:35:00,
2013-02-17 14:45:00,37.6,14.8,30.25,SW,232,2.0,3.0,39,0.00,,,0.00,596,Wunderground v.1.15,2013-02-17 19:45:00,
2013-02-17 14:50:00,38.0,14.6,30.26,NNE,23,3.0,3.0,38,0.00,,,0.00,587,Wunderground v.1.15,2013-02-17 19:50:00,
2013-02-17 14:55:00,37.9,15.1,30.26,NNW,329,3.0,3.0,39,0.00,,,0.00,580,Wunderground v.1.15,2013-02-17 19:55:00,
2013-02-17 15:00:00,38.1,15.9,30.25,North,360,2.0,2.0,40,0.00,,,0.00,568,Wunderground v.1.15,2013-02-17 20:00:00,
2013-02-17 15:05:00,38.4,15.0,30.25,North,355,2.0,4.0,38,0.00,,,0.00,550,Wunderground v.1.15,2013-02-17 20:05:00,
2013-02-17 15:15:00,38.3,14.9,30.25,NNW,338,2.0,8.0,38,0.00,,,0.00,529,Wunderground v.1.15,2013-02-17 20:15:00,
2013-02-17 15:20:00,38.1,14.7,30.25,North,9,4.0,5.0,38,0.00,,,0.00,519,Wunderground v.1.15,2013-02-17 20:20:00,
2013-02-17 15:25:00,37.9,14.5,30.25,ENE,63,5.0,5.0,38,0.00,,,0.00,501,Wunderground v.1.15,2013-02-17 20:25:00,
2013-02-17 15:30:00,38.0,14.6,30.25,NNE,24,3.0,3.0,38,0.00,,,0.00,489,Wunderground v.1.15,2013-02-17 20:30:00,
2013-02-17 15:35:00,38.2,14.8,30.25,NNW,342,3.0,3.0,38,0.00,,,0.00,380,Wunderground v.1.15,2013-02-17 20:35:00,
2013-02-17 15:40:00,37.8,14.4,30.25,North,360,4.0,5.0,38,0.00,,,0.00,295,Wunderground v.1.15,2013-02-17 20:40:00,
2013-02-17 15:45:00,37.7,14.9,30.25,North,360,4.0,5.0,39,0.00,,,0.00,274,Wunderground v.1.15,2013-02-17 20:45:00,
2013-02-17 15:50:00,37.6,14.8,30.25,WNW,284,2.0,3.0,39,0.00,,,0.00,199,Wunderground v.1.15,2013-02-17 20:50:00,
2013-02-17 15:55:00,37.6,14.8,30.25,WSW,250,2.0,3.0,39,0.00,,,0.00,123,Wunderground v.1.15,2013-02-17 20:55:00,
2013-02-17 16:05:00,37.6,15.4,30.25,NNW,337,4.0,4.0,40,0.00,,,0.00,158,Wunderground v.1.15,2013-02-17 21:05:00,
2013-02-17 16:15:00,37.7,14.9,30.25,NW,326,3.0,3.0,39,0.00,,,0.00,116,Wunderground v.1.15,2013-02-17 21:15:00,
2013-02-17 16:20:00,37.6,15.4,30.25,NNE,27,1.0,1.0,40,0.00,,,0.00,90,Wunderground v.1.15,2013-02-17 21:20:00,
2013-02-17 16:25:00,37.5,15.3,30.25,NNE,20,1.0,3.0,40,0.00,,,0.00,33,Wunderground v.1.15,2013-02-17 21:25:00,
2013-02-17 16:35:00,37.5,15.3,30.25,NNW,347,3.0,3.0,40,0.00,,,0.00,39,Wunderground v.1.15,2013-02-17 21:35:00,
2013-02-17 16:40:00,37.5,15.3,30.25,NNW,347,2.0,2.0,40,0.00,,,0.00,42,Wunderground v.1.15,2013-02-17 21:40:00,
2013-02-17 16:45:00,37.5,15.3,30.25,North,350,1.0,3.0,40,0.00,,,0.00,30,Wunderground v.1.15,2013-02-17 21:45:00,
2013-02-17 16:50:00,37.4,15.2,30.25,North,355,2.0,2.0,40,0.00,,,0.00,35,Wunderground v.1.15,2013-02-17 21:50:00,
2013-02-17 16:55:00,37.5,15.3,30.25,NNW,341,1.0,3.0,40,0.00,,,0.00,39,Wunderground v.1.15,2013-02-17 21:55:00,
2013-02-17 17:00:00,37.5,15.9,30.25,NW,317,1.0,1.0,41,0.00,,,0.00,25,Wunderground v.1.15,2013-02-17 22:00:00,
2013-02-17 17:10:00,37.3,15.7,30.26,NW,319,0.0,0.0,41,0.00,,,0.00,42,Wunderground v.1.15,2013-02-17 22:10:00,
2013-02-17 17:15:00,37.3,15.7,30.25,NW,322,0.0,1.0,41,0.00,,,0.00,30,Wunderground v.1.15,2013-02-17 22:15:00,
2013-02-17 17:20:00,37.2,15.6,30.26,NW,322,0.0,0.0,41,0.00,,,0.00,18,Wunderground v.1.15,2013-02-17 22:20:00,
2013-02-17 17:25:00,37.1,15.5,30.26,NW,322,0.0,1.0,41,0.00,,,0.00,16,Wunderground v.1.15,2013-02-17 22:25:00,
2013-02-17 17:30:00,37.0,15.5,30.26,NNW,345,1.0,1.0,41,0.00,,,0.00,16,Wunderground v.1.15,2013-02-17 22:30:00,
2013-02-17 17:40:00,36.9,15.4,30.26,North,355,2.0,2.0,41,0.00,,,0.00,12,Wunderground v.1.15,2013-02-17 22:40:00,
2013-02-17 17:45:00,36.8,15.8,30.26,North,355,1.0,2.0,42,0.00,,,0.00,12,Wunderground v.1.15,2013-02-17 22:45:00,
2013-02-17 17:55:00,36.3,15.4,30.26,North,355,0.0,0.0,42,0.00,,,0.00,11,Wunderground v.1.15,2013-02-17 22:55:00,
2013-02-17 18:00:00,36.1,15.7,30.26,North,355,0.0,0.0,43,0.00,,,0.00,9,Wunderground v.1.15,2013-02-17 23:00:00,
2013-02-17 18:05:00,36.0,15.6,30.26,North,355,0.0,0.0,43,0.00,,,0.00,7,Wunderground v.1.15,2013-02-17 23:05:00,
2013-02-17 18:15:00,35.6,14.7,30.26,North,355,0.0,0.0,42,0.00,,,0.00,5,Wunderground v.1.15,2013-02-17 23:15:00,
2013-02-17 18:20:00,35.5,15.2,30.26,North,355,0.0,0.0,43,0.00,,,0.00,0,Wunderground v.1.15,2013-02-17 23:20:00,
2013-02-17 18:25:00,35.3,14.5,30.27,North,355,0.0,0.0,42,0.00,,,0.00,0,Wunderground v.1.15,2013-02-17 23:25:00,
2013-02-17 18:30:00,35.2,14.9,30.27,North,355,0.0,0.0,43,0.00,,,0.00,0,Wunderground v.1.15,2013-02-17 23:30:00,
2013-02-17 18:35:00,34.9,14.6,30.27,North,355,0.0,0.0,43,0.00,,,0.00,0,Wunderground v.1.15,2013-02-17 23:35:00,
2013-02-17 18:40:00,34.6,15.4,30.27,North,355,0.0,0.0,45,0.00,,,0.00,0,Wunderground v.1.15,2013-02-17 23:40:00,
2013-02-17 18:50:00,33.8,14.7,30.27,North,355,0.0,0.0,45,0.00,,,0.00,0,Wunderground v.1.15,2013-02-17 23:50:00,
2013-02-17 18:55:00,33.4,15.3,30.27,North,355,0.0,0.0,47,0.00,,,0.00,0,Wunderground v.1.15,2013-02-17 23:55:00,
2013-02-17 19:00:00,32.9,14.8,30.27,North,355,0.0,0.0,47,0.00,,,0.00,0,Wunderground v.1.15,2013-02-18 00:00:00,
2013-02-17 19:05:00,32.2,14.7,30.27,North,355,0.0,0.0,48,0.00,,,0.00,0,Wunderground v.1.15,2013-02-18 00:05:00,
2013-02-17 19:15:00,31.5,15.0,30.27,North,355,0.0,0.0,50,0.00,,,0.00,0,Wunderground v.1.15,2013-02-18 00:15:00,
2013-02-17 19:20:00,31.1,16.4,30.28,North,355,0.0,0.0,54,0.00,,,0.00,0,Wunderground v.1.15,2013-02-18 00:20:00,
2013-02-17 19:30:00,30.3,15.2,30.28,North,355,0.0,0.0,53,0.00,,,0.00,0,Wunderground v.1.15,2013-02-18 00:30:00,
2013-02-17 19:35:00,30.0,16.2,30.27,North,355,0.0,0.0,56,0.00,,,0.00,0,Wunderground v.1.15,2013-02-18 00:35:00,
2013-02-17 19:40:00,29.7,16.7,30.28,North,355,0.0,0.0,58,0.00,,,0.00,0,Wunderground v.1.15,2013-02-18 00:40:00,
2013-02-17 19:45:00,29.3,16.3,30.28,North,355,0.0,0.0,58,0.00,,,0.00,0,Wunderground v.1.15,2013-02-18 00:45:00,
2013-02-17 19:50:00,29.1,16.1,30.28,North,355,0.0,0.0,58,0.00,,,0.00,0,Wunderground v.1.15,2013-02-18 00:50:00,
2013-02-17 19:55:00,28.9,16.4,30.28,North,355,0.0,0.0,59,0.00,,,0.00,0,Wunderground v.1.15,2013-02-18 00:55:00,
2013-02-17 20:00:00,28.7,16.9,30.28,North,355,0.0,0.0,61,0.00,,,0.00,0,Wunderground v.1.15,2013-02-18 01:00:00,
2013-02-17 20:10:00,28.3,15.4,30.28,North,355,0.0,0.0,58,0.00,,,0.00,0,Wunderground v.1.15,2013-02-18 01:10:00,
2013-02-17 20:15:00,28.3,15.0,30.28,North,355,0.0,0.0,57,0.00,,,0.00,0,Wunderground v.1.15,2013-02-18 01:15:00,
2013-02-17 20:20:00,28.2,16.8,30.28,North,355,0.0,0.0,62,0.00,,,0.00,0,Wunderground v.1.15,2013-02-18 01:20:00,
2013-02-17 20:25:00,28.1,16.0,30.28,North,355,0.0,0.0,60,0.00,,,0.00,0,Wunderground v.1.15,2013-02-18 01:25:00,
2013-02-17 20:30:00,27.9,15.8,30.29,North,355,0.0,0.0,60,0.00,,,0.00,0,Wunderground v.1.15,2013-02-18 01:30:00,
2013-02-17 20:35:00,27.8,16.8,30.29,North,355,0.0,0.0,63,0.00,,,0.00,0,Wunderground v.1.15,2013-02-18 01:35:00,
2013-02-17 20:44:00,27.5,15.8,30.29,North,355,0.0,0.0,61,0.00,,,0.00,0,Wunderground v.1.15,2013-02-18 01:44:00,
2013-02-17 20:50:00,27.4,17.2,30.29,North,355,0.0,0.0,65,0.00,,,0.00,0,Wunderground v.1.15,2013-02-18 01:50:00,
2013-02-17 20:55:00,27.2,17.0,30.29,North,355,0.0,0.0,65,0.00,,,0.00,0,Wunderground v.1.15,2013-02-18 01:55:00,
2013-02-17 21:00:00,27.2,16.3,30.30,North,355,0.0,0.0,63,0.00,,,0.00,0,Wunderground v.1.15,2013-02-18 02:00:00,
2013-02-17 21:05:00,27.1,16.9,30.30,North,355,0.0,0.0,65,0.00,,,0.00,0,Wunderground v.1.15,2013-02-18 02:05:00,
2013-02-17 21:15:00,26.9,16.3,30.30,North,355,0.0,0.0,64,0.00,,,0.00,0,Wunderground v.1.15,2013-02-18 02:15:00,
2013-02-17 21:20:00,26.8,17.0,30.30,North,355,0.0,0.0,66,0.00,,,0.00,0,Wunderground v.1.15,2013-02-18 02:20:00,
2013-02-17 21:25:00,26.6,17.1,30.30,North,355,0.0,0.0,67,0.00,,,0.00,0,Wunderground v.1.15,2013-02-18 02:25:00,
2013-02-17 21:30:00,26.5,17.4,30.30,North,355,0.0,0.0,68,0.00,,,0.00,0,Wunderground v.1.15,2013-02-18 02:30:00,
2013-02-17 21:35:00,26.3,17.5,30.30,North,355,0.0,0.0,69,0.00,,,0.00,0,Wunderground v.1.15,2013-02-18 02:35:00,
2013-02-17 21:40:00,26.1,17.0,30.30,North,355,0.0,0.0,68,0.00,,,0.00,0,Wunderground v.1.15,2013-02-18 02:40:00,
2013-02-17 21:50:00,26.0,15.8,30.31,North,355,0.0,0.0,65,0.00,,,0.00,0,Wunderground v.1.15,2013-02-18 02:50:00,
2013-02-17 21:55:00,26.0,15.8,30.31,North,355,0.0,0.0,65,0.00,,,0.00,0,Wunderground v.1.15,2013-02-18 02:55:00,
2013-02-17 22:00:00,26.1,16.6,30.31,North,355,0.0,0.0,67,0.00,,,0.00,0,Wunderground v.1.15,2013-02-18 03:00:00,
2013-02-17 22:05:00,26.0,16.5,30.31,North,355,0.0,0.0,67,0.00,,,0.00,0,Wunderground v.1.15,2013-02-18 03:05:00,
2013-02-17 22:15:00,25.8,17.4,30.30,North,355,0.0,0.0,70,0.00,,,0.00,0,Wunderground v.1.15,2013-02-18 03:15:00,
2013-02-17 22:20:00,25.6,16.5,30.31,North,355,0.0,0.0,68,0.00,,,0.00,0,Wunderground v.1.15,2013-02-18 03:20:00,
2013-02-17 22:25:00,25.5,17.4,30.30,North,355,0.0,0.0,71,0.00,,,0.00,0,Wunderground v.1.15,2013-02-18 03:25:00,
2013-02-17 22:30:00,25.2,16.8,30.31,North,355,0.0,0.0,70,0.00,,,0.00,0,Wunderground v.1.15,2013-02-18 03:30:00,
2013-02-17 22:35:00,25.2,16.5,30.31,North,355,0.0,0.0,69,0.00,,,0.00,0,Wunderground v.1.15,2013-02-18 03:35:00,
2013-02-17 22:40:00,25.2,16.8,30.31,North,355,0.0,0.0,70,0.00,,,0.00,0,Wunderground v.1.15,2013-02-18 03:40:00,
2013-02-17 22:50:00,25.0,16.6,30.31,North,355,0.0,0.0,70,0.00,,,0.00,0,Wunderground v.1.15,2013-02-18 03:50:00,
2013-02-17 22:55:00,24.9,16.5,30.31,North,355,0.0,0.0,70,0.00,,,0.00,0,Wunderground v.1.15,2013-02-18 03:55:00,
2013-02-17 23:00:00,24.8,16.7,30.31,North,355,0.0,0.0,71,0.00,,,0.00,0,Wunderground v.1.15,2013-02-18 04:00:00,
2013-02-17 23:09:00,24.5,16.8,30.31,North,355,0.0,0.0,72,0.00,,,0.00,0,Wunderground v.1.15,2013-02-18 04:09:00,
2013-02-17 23:15:00,24.4,17.3,30.31,North,355,0.0,0.0,74,0.00,,,0.00,0,Wunderground v.1.15,2013-02-18 04:15:00,
2013-02-17 23:20:00,24.3,16.6,30.31,North,355,0.0,0.0,72,0.00,,,0.00,0,Wunderground v.1.15,2013-02-18 04:20:00,
2013-02-17 23:25:00,24.1,16.4,30.31,North,355,0.0,0.0,72,0.00,,,0.00,0,Wunderground v.1.15,2013-02-18 04:25:00,
2013-02-17 23:30:00,24.1,17.0,30.31,North,355,0.0,0.0,74,0.00,,,0.00,0,Wunderground v.1.15,2013-02-18 04:30:00,
2013-02-17 23:35:00,24.0,17.2,30.31,North,355,0.0,0.0,75,0.00,,,0.00,0,Wunderground v.1.15,2013-02-18 04:35:00,
2013-02-17 23:44:00,23.9,17.1,30.31,North,355,0.0,0.0,75,0.00,,,0.00,0,Wunderground v.1.15,2013-02-18 04:44:00,
2013-02-17 23:50:00,23.9,17.4,30.31,North,355,0.0,0.0,76,0.00,,,0.00,0,Wunderground v.1.15,2013-02-18 04:50:00,
2013-02-17 23:55:00,23.8,16.7,30.31,North,355,0.0,0.0,74,0.00,,,0.00,0,Wunderground v.1.15,2013-02-18 04:55:00,